Погода в Махачкале

Погода в Махачкале : погода сейчас, прогноз погоды и архив. Всё, что Вы хотите узнать о погоде в Махачкале!

Поиск расширенной информации на нашем сайте:

Другие новости

Новости СМИ2

Главная страница сайта

Новости сайта

02.10.2013

Напоминаем, что на нашем новом сайте вы можете получить высокодетализированные прогнозы погоды по пунктам России, СНГ и мира (включающие важные для авиации метеовеличины, такие как направление и скорость ветра, видимость, явления погоды, количество и форма облачности, нижняя и верхняя граница облачности), а также ознакомиться с разнообразными материалами по авиационной метеорологии и подборкой полезных ссылок на эту тему.

Сайт Метеоцентр.Азия посвящён разработке технологий оптимизации авиаметеорологического обслуживания, включая проектирование и перспективное создание нескольких автоматизированных авиаметеорологических систем:
- система выпуска высокодетальных прогностических карт явлений погоды для нижнего воздушного пространства по России и ближнему зарубежью;
- система верификации прогнозов TAF (выпускаемых синоптиками официальных АМСГ РФ и ближнего зарубежья) и AUTOTAF (выпускаемых сайтом Метеоцентр.Азия) - выявление ошибок, онлайн-сопоставление с фактической погодой METAR, автоматическое внесение коррективов в прогнозы при резком отклонении фактической погоды от прогноза, подсчёт оправдываемости прогнозов по элементам и в целом;
- система обработки, анализа и отображения авиаметеорологической информации для применения провайдерами метеорологической информации.

Рекомендуем: Люстра хрустальная интернет.

Погода в Махачкале - сегодня

Время (UTC), дата Ветер
(°,м/с) 
Видим.   Явления Облачность Т
(°С)
Тd
(°С)
f(%) Тe
(°С)
Pmin
(гПа)
dP
(гПа)
Po
(мм)
O2
(г/м3)
Тmin Tmax R s Состояние
почвы
21 22.03.17 340 (С) 4000 м  слаб. дождь  10/10 600 м 
[Frnb|Ns]
+5.9 +3.7 86 +5  1019.8  -0.2  767  302           
00 23.03.17 310 (СЗ) 4000 м  слаб. дождь  10/10 600 м 
[Frnb|Ns]
+4.1 +2.4 89 +4  1019.6  -0.2  766  304           
03 23.03.17 320 (СЗ) 4000 м  слаб. дождь  10/10 600 м 
[Frnb]
+2.6 +1 89 +2  1020.6  767  306  +2.5       
06 23.03.17 320 (СЗ) 4000 м  слаб. дождь  10/10 600 м 
[Frnb|Ns]
+2 +0.5 90 +1  1022.3  1.6  768  307  +2         
09 23.03.17 280 (З) 4000 м  слаб. дождь{снег}  10/10 600 м 
[Frnb|Ns]
+2 +0.5 90 +1  1023.2  0.9  769  308           
12 23.03.17 310 (СЗ) 4000 м  слаб. дождь{снег}  10/10 600 м 
[Frnb|Ns]
+2 +0.1 87 1024.2  770  308           
15 23.03.17 260 (З) 4000 м  слаб. дождь{снег}  10/10 600 м 
[Frnb|Ns]
+1.8 +0.2 89 +1  1025.5  1.3  771  309    +2.6     
18 23.03.17 270 (З) 4000 м  слаб. дождь{снег}  10/10 600 м 
[Frnb|Ns]
+2.4 +0.8 89 +2  1026.9  1.4  772  308           
21 23.03.17 240 (ЮЗ) 4000 м  слаб. дождь  10/10 600 м 
[Frnb|Ns]
+2.5 +1.1 90 +3  1027  0.1  772  308           
00 24.03.17 260 (З) 4000 м  слаб. дождь  10/10 600 м 
[Frnb|Ns]
+2.3 +1 91 +2  1027.1  0.2  772  308           
03 24.03.17 270 (З) 4000 м  в посл. час дождь  10/10 600 м 
[Frnb|Ns]
+2.7 +1.3 90 +2  1027.9  0.8  773  308  +1.8       
06 24.03.17 240 (ЮЗ) 4000 м  дымка{дождь}  10/8 600 м средняя 
[Sc|Ac As]
+4 +1.5 84 +5  1028.8  0.9  773  307           
09 24.03.17 090 (В) 10 км    10/5 600 м средняя 
[Sc|Ac As]
+5.3 +1.2 75 +6  1028.3  0.9  773  305           
12 24.03.17 090 (В) 10 км    10/6 600 м средняя 
[Sc|Ac As]
+5.4 +2.1 79 +6  1027.1  0.9  772  305           
15 24.03.17 120 (ЮВ) 10 км    10/4 600 м средняя 
[Sc|Ac As]
+5.3 +2.2 80 +4  1026.9  -0.2  772  305    +5.7       
18 24.03.17 130 (ЮВ) 4000 м  дымка  9/4 600 м средняя, верхняя 
[Sc|Ac As|Ci fib]
+5 +1.9 80 +4  1026.2  -0.7  771  305           
21 24.03.17 130 (ЮВ) 4000 м  дымка  6/3 600 м средняя, верхняя 
[Sc|Ac As|Ci fib]
+4.4 +1.8 83 +3  1023.9  -2.3  770  305           
00 25.03.17 150 (ЮВ) 4000 м  дымка  4/0 верхняя 
[Ci fib]
+3.6 +1.6 87 +2  1021.5  -2.4  768  305           
03 25.03.17 150 (ЮВ) н/о    н/о 
+2.1 -0.2 85 +1  1020.6  -0.8  767  307  +0.4         
06 25.03.17 120 (ЮВ) 10 км    3/0 верхняя 
[Ci fib]
+7.4 +2.5 71 +7  1020.1  -0.6  767  300           
09 25.03.17 110 (В) 10 км    4/0 верхняя 
[Ci fib]
+7.7 +4 77 +6  1017.1  -3  764  299           
12 25.03.17 100 (В) 10 км    8/0 средняя, верхняя 
[Ac trans|Ci fib]
+7.7 +4.4 80 +7  1015.1  -2  763  298           
15 25.03.17 090 (В) 10 км    8/0 средняя, верхняя 
[Ac trans|Ci fib]
+6.5 +4.5 87 +6  1014.6  -0.5  763  299    +8.4       
18 25.03.17 110 (В) 4000 м    4/0 верхняя 
[Ci fib]
+6.1 +4.6 90 +6  1014.8  0.2  763  300           
21 25.03.17 250 (З) 4000 м  дымка  3/0 верхняя 
[Ci fib]
+4 +2.8 92 +4  1014.7  0.1  763  302           
Время (UTC), дата Ветер
(°,м/с) 
Видим.   Явления Облачность Т
(°С)
Тd
(°С)
f(%) Тe
(°С)
Pmin
(гПа)
dP
(гПа)
Po
(мм)
O2
(г/м3)
Тmin Tmax R s Состояние
почвы

Для получения пояснительной информации подведите курсор к названию столбца.

ПОГОДА в Махачкале - архив

Всё, что Вы хотите узнать о погоде в Махачкале - удобно и подробно!

Выберите нужную дату (начиная с 1 января 2015* года) и нажмите кнопку "Найти".
Будут отображены архивные сводки погоды по пункту Махачкала, начиная с указанной даты.


Отображать данные в формате CSV (для использования в таблицах Excel)


Внимание! Наш архив погоды предназначен исключительно для личного некоммерческого использования в познавательных целях. Если Вам необходимы официальные справки о состоянии погоды (для производственных, юридических, коммерческих и т.п. целей), обращайтесь в органы Росгидромета.

*Примечание: данная дата относится к архиву по метеостанциям СССР (Россия, СНГ, Балтия).
Архив по метеостанциям Зарубежной Европы и Азии (кроме Китая) хранится 10 дней, по другим регионам земного шара (Китай, Африка, Америка, Австралия, Океания) - 1 день.

Махачкала - район местоположения метеостанции


Название, широта, долгота, высота метеостанции:
Махачкала 42.8°ш. 47.6°д. 32 м над ур. моря [Российская Федерация]

Дополнительная информация

В oтличие oт бoльшинства пoгoдных сайтoв мы публикуем пoдрoбную метеoинфoрмацию в детальнoм прoфессиoнальнoм фoрмате.

Характеристики температуры и влажнoсти вoздуха измеряются на высoте 2 м в тени вдали oт зданий и деревьев.
Скoрoсть ветра измеряется на высoте 10 м (на урoвне рoста челoвека скoрoсть ветра ниже в 1.5-2 раза). Если метеoстанция нахoдится в гoрoде или в лесу, тo скoрoсть ветра занижена на 2-4 м/с пo сравнению с oткрытым местoм. Скoрoсть ветра над акватoриями крупных рек и oзёр, а также на вершинах хoлмoв на 2-5 м/с выше, чем в oбычных услoвиях.
Атмoсфернoе давление в разных тoчках местнoсти мoжет значительнo oтличаться oт давления на метеoстанции, в зависимoсти oт услoвий рельефа (при пoдъёме на 10 м давление пoнижается примернo на 1 мм рт.ст.).